Regional Weather Roundup
Issued by NWS

Home | Current Version | Previous Version | Graphics & Text | Print | Product List | Glossary Off
Versions: 1 2 3 4 5 6 7 8 9 10 11 12 13 14 15 16 17 18 19 20 21 22 23 24 25 26 27 28 29 30 31 32 33 34 35 36 37 38 39 40 41 42 43 44 45 46 47 48 49 50

000
ASUS43 KDTX 312010
RWRMI
MICHIGAN HOURLY REGIONAL WEATHER ROUNDUP
NATIONAL WEATHER SERVICE DETROIT/PONTIAC MI
400 PM EDT THU JUL 31 2014

NOTE: "FAIR" INDICATES FEW OR NO CLOUDS BELOW 12,000 FEET WITH NO
SIGNIFICANT WEATHER AND/OR OBSTRUCTION TO VISIBILITY.

MIZ047>049-052>055-059>063-066>070-074>076-081>083-312100-
SOUTHEAST LOWER MICHIGAN

CITY           SKY/WX    TMP DP  RH WIND       PRES   REMARKS
ALMA           PTSUNNY   74  56  52 W6        29.99F
ANN ARBOR      MOSUNNY   80  54  40 SW15G22   30.02F
BAD AXE        MOSUNNY   75  59  56 W8        30.00S
CARO           PTSUNNY   76  59  55 W6        29.99S
DETROIT CITY   MOSUNNY   80  55  42 W12       30.01F
DETROIT        MOSUNNY   80  56  43 S14       30.02F
FLINT          LGT RAIN  71  62  73 NE5       30.01S
GROSSE ILE     PTSUNNY   79  55  44 SW8G17    30.01F
HILLSDALE      MOSUNNY   78  58  49 W8G16     30.05S
HOWELL         PTSUNNY   76  58  53 SW14      30.02S

CITY           SKY/WX    TMP DP  RH WIND       PRES   REMARKS
JACKSON        PTSUNNY   76  59  55 W12       30.03S
LAMBERTVILLE   CLOUDY    79  54  41 W6        30.04S
LANSING        MOSUNNY   78  57  48 SW17      30.02S
LAPEER         MOCLDY    75  56  50 W8        30.00F
MASON          PTSUNNY   76  59  54 W9        30.02F
MONROE         MOSUNNY   79  55  44 SW12      30.02S
MT. CLEMENS    MOSUNNY   78  58  49 SW8       30.00S
PONTIAC        PTSUNNY   76  56  49 SW10      30.01F
PORT HOPE        N/A     75  55  49 VRB3      29.97F
PORT HURON     PTSUNNY   73  59  60 SW5       30.00F
TRI CITIES     MOSUNNY   78  56  46 W8        29.99F
TROY           PTSUNNY   77  54  44 SW7       30.02F
SAGINAW HB     PTSUNNY   75  55  50 NW9       29.99S
$$
MIZ043>046-050>051-056>058-064>065-071>073-077>080-312100-
SOUTHWEST LOWER MICHIGAN

CITY           SKY/WX    TMP DP  RH WIND       PRES   REMARKS
BATTLE CREEK   MOSUNNY   79  59  50 W14       30.04S
BENTON HARBOR  SUNNY     78  57  48 W10       30.04F
BIG RAPIDS     MOSUNNY   75  54  47 W8        29.98F
COLDWATER      PTSUNNY   81  59  46 W12       30.04S
FREMONT        FAIR      77  56  47 SW10      30.00S
HOLLAND        SUNNY     76  60  57 SW9       30.04F
GRAND RAPIDS   MOSUNNY   80  59  48 W16       30.02S
IONIA          MOCLDY    79  56  45 W16       30.00F
KALAMAZOO      MOSUNNY   80  58  46 W10G18    30.04R
LUDINGTON      SUNNY     71  61  70 SW9       30.00F
MARSHALL       MOSUNNY   79  60  51 W8G20     30.03S
MOUNT PLEASANT PTSUNNY   75  55  49 W6        29.98F
MUSKEGON       MOSUNNY   72  58  61 SW12      30.02F
SOUTH HAVEN    SUNNY     75  62  63 SW7       30.04S
$$
MIZ016>042-312100-
NORTHERN LOWER MICHIGAN

CITY           SKY/WX    TMP DP  RH WIND       PRES   REMARKS
ALPENA         CLOUDY    74  51  44 VRB6      29.94S
BEAVER ISLAND  CLOUDY    64  60  87 SW13      29.96R
BELLAIRE       SUNNY     76  47  35 W5        29.95F
CADILLAC       PTSUNNY   73  55  51 W10G17    29.99S
CHARLEVOIX     SUNNY     75  56  50 SW10G17   29.98S
FRANKFORT      SUNNY     71  56  57 SW9       29.99F
GAYLORD        MOSUNNY   74  46  36 W12       29.97S
GRAYLING       PTSUNNY   74  49  40 W7        29.99R
HARBOR SPRINGS SUNNY     74  55  50 W8        29.95S
HOUGHTON LAKE  PTSUNNY   76  50  40 VRB5      29.98F
MANISTEE       SUNNY     72  57  60 W9        30.00S
OSCODA         CLOUDY    75  50  40 W5        29.95S
PELLSTON       SUNNY     74  55  51 SW12      29.94S
ROGERS CITY    MOSUNNY   76  53  43 W13G21    29.94S
TRAVERSE CITY  MOSUNNY   79  48  33 W12G20    29.95S
$$
MIZ007>008-015-312100-
EASTERN UPPER MICHIGAN

CITY           SKY/WX    TMP DP  RH WIND       PRES   REMARKS
KINROSS        CLOUDY    66  59  77 W9        29.94R
MACKINAC ISLAN CLOUDY    65  58  77 W10G17    29.94R
NEWBERRY       CLOUDY    72  53  50 NW6       29.92S
S. S. MARIE    PTSUNNY   71  47  42 W10       29.92R
MUNISING         N/A     67  57  70 NE8       29.94R
$$
MIZ004>006-011>014-085-312100-
CENTRAL UPPER MICHIGAN

CITY           SKY/WX    TMP DP  RH WIND       PRES   REMARKS
MANISTIQUE     CLOUDY    63  58  84 SW9G17    29.94R
ESCANABA       PTSUNNY   73  57  56 S10       29.92S
MENOMINEE      MOSUNNY   79  52  38 W6        29.93S
SAWYER-GWINN   MOSUNNY   72  52  49 NE12      29.95R
$$
MIZ001>003-009>011-084-312100-
WESTERN UPPER MICHIGAN

CITY           SKY/WX    TMP DP  RH WIND       PRES   REMARKS
IRON MOUNTAIN  SUNNY     80  49  33 W14G23    29.95R
HOUGHTON       SUNNY     71  48  43 NW9       29.95R
COPPER HARBOR    N/A     70  54  56 N13       29.92S
$$

ABBREVIATIONS USED IN REMARKS
   TC - TEMPERATURE IN CELSIUS
  WCI - WIND CHILL INDEX
   HX - HEAT INDEX
  VSB - VISIBILITY



USA.gov is the U.S. government's official web portal to all federal, state and local government web resources and services.